Regional Weather Roundup
Issued by NWS

Home | Current Version | Previous Version | Graphics & Text | Print | Product List | Glossary On
Versions: 1 2 3 4 5 6 7 8 9 10 11 12 13 14 15 16 17 18 19 20 21 22 23 24 25 26 27 28 29 30 31 32 33 34 35 36 37 38 39 40 41 42 43 44 45 46 47 48 49 50
196
ASUS45 KSLC 271110
RWRUT

UTAH REGIONAL WEATHER ROUNDUP
NATIONAL WEATHER SERVICE SALT LAKE CITY UT
500 AM MDT FRI MAY 27 2016

UTZ001>011-023>025-271200-

NORTHERN UTAH

CITY           SKY/WX    TMP DP  RH WIND       PRES   REMARKS
BRIGHAM CITY     N/A     49  44  81 CALM      29.96S
HILL AFB       PTCLDY    47  39  73 E14       29.96S
LOGAN          CLEAR     40  39  97 CALM      29.97R
OGDEN          PTCLDY    47  41  80 S8        29.95S
PROVO AIRPORT  MOCLDY    45  36  70 E5        29.98S
SALT LAKE CITY PTCLDY    56  41  57 SE8       29.94F
VERNAL         CLOUDY    44  37  76 CALM      29.95R
WENDOVER       CLOUDY    57  39  51 E3        29.96S
HEBER CITY     MOCLDY    34  32  93 CALM      30.01S
WEST JORDAN    PTCLDY    48  43  81 CALM      29.97S

$$

UTZ012>022-026-027-271200-

SOUTHERN/CENTRAL UTAH

CITY           SKY/WX    TMP DP  RH WIND       PRES   REMARKS
BLANDING       CLEAR     40  31  69 NW5       30.01S
BRYCE CANYON   CLEAR     34  29  82 N6        30.06S WCI  29
CEDAR CITY     CLEAR     39  35  86 CALM      30.01R
DELTA          PTCLDY    43  37  81 E6        29.98S
HANKSVILLE     CLEAR     43  32  65 CALM      29.93S
MILFORD        CLOUDY    45  40  82 S7        29.99S
MOAB/CYNLANDS  CLEAR     48  31  51 N3        29.90R
PRICE          CLEAR     50  31  48 NW8       29.95S
ST GEORGE      SUNNY     55  34  44 E5        29.94S
KANAB          PTCLDY    45  36  70 NW7       30.02S

$$

REGIONAL REPORTS     COLORADO/ARIZONA

CITY           SKY/WX    TMP DP  RH WIND       PRES   REMARKS
CRAIG, CO      CLOUDY    41  36  82 W5        29.97S
GRAND JUNCTION CLOUDY    50  40  68 S3        29.91F
RIFLE          CLOUDY    49  39  68 CALM      29.95R
MONTROSE       CLOUDY    45  37  73 S5        29.97R
CORTEZ         CLOUDY    36  31  82 E5        29.96R WCI  32
PAGE, AZ       CLEAR     59  35  40 NW3       29.92S
GRAND CANYON   CLEAR     29  22  75 CALM      30.05F
KINGMAN        CLEAR     53  28  38 CALM      29.92S
FLAGSTAFF      CLEAR     32  27  81 SW5       30.06S WCI  27

$$

REGIONAL REPORTS    NEVADA/IDAHO/WYOMING

CITY           SKY/WX    TMP DP  RH WIND       PRES   REMARKS
LAS VEGAS, NV  PTCLDY    71  36  27 N3        29.81R
ELY            PTCLDY    36  31  82 S8        30.06F WCI  30
ELKO           CLOUDY    42  38  85 CALM      30.01S
POCATELLO, ID  MOCLDY    46  39  76 S7        29.95S
BURLEY         PTCLDY    50  39  66 SW10      29.92S
EVANSTON, WY   CLOUDY    40  33  76 SW6       30.03F
ROCK SPRINGS   LGT RAIN  43  40  89 SE3       30.01S
KEMMERER         N/A     36  32  87 N3        30.03S

$$




USA.gov is the U.S. government's official web portal to all federal, state and local government web resources and services.